This is the latest recevied weather packets stored in our database for station/object OH5GWF-1. If no packets are shown the sender has not sent any weather packets the latest 10 day(s).
| Time | Temp. | Humidity | Pressure | Rain* | Wind** | Luminosity | Snow |
|---|---|---|---|---|---|---|---|
| 1777458538 | 7.22° C | 42% | 1023.9 hPa | 0 mm | - | - | - |
| 1777458468 | 7.22° C | 42% | 1023.8 hPa | 0 mm | - | - | - |
| 1777458115 | 8.33° C | 41% | 1023.8 hPa | 0 mm | - | - | - |
| 1777457804 | 8.33° C | 41% | 1023.9 hPa | 0 mm | - | - | - |
| 1777457693 | 8.33° C | 41% | 1023.9 hPa | 0 mm | - | - | - |
| 1777457271 | 7.78° C | 42% | 1023.8 hPa | 0 mm | - | - | - |
| 1777456850 | 7.78° C | 42% | 1023.9 hPa | 0 mm | - | - | - |
| 1777456489 | 7.78° C | 41% | 1023.8 hPa | 0 mm | - | - | - |
| 1777456439 | 7.78° C | 41% | 1023.8 hPa | 0 mm | - | - | - |
| 1777456018 | 7.78° C | 42% | 1023.8 hPa | 0 mm | - | - | - |
| 1777455826 | 7.78° C | 42% | 1023.8 hPa | 0 mm | - | - | - |
| 1777455595 | 7.78° C | 42% | 1023.9 hPa | 0 mm | - | - | - |
| 1777455174 | 7.78° C | 41% | 1023.9 hPa | 0 mm | - | - | - |
| 1777454752 | 7.78° C | 41% | 1024 hPa | 0 mm | - | - | - |
| 1777454329 | 8.89° C | 41% | 1024 hPa | 0 mm | - | - | - |
| 1777453919 | 8.89° C | 41% | 1024.1 hPa | 0 mm | - | - | - |
| 1777453497 | 8.89° C | 41% | 1024 hPa | 0 mm | - | - | - |
| 1777453075 | 9.44° C | 41% | 1023.9 hPa | 0 mm | - | - | - |
| 1777452653 | 8.89° C | 43% | 1024.1 hPa | 0 mm | - | - | - |
| 1777452231 | 7.78° C | 43% | 1024.1 hPa | 0 mm | - | - | - |
| 1777451821 | 8.89° C | 42% | 1023.9 hPa | 0 mm | - | - | - |
| 1777451398 | 8.33° C | 43% | 1023.9 hPa | 0 mm | - | - | - |
| 1777450975 | 7.78° C | 42% | 1024 hPa | 0 mm | - | - | - |
| 1777450553 | 7.78° C | 43% | 1024 hPa | 0 mm | - | - | - |
| 1777450131 | 7.22° C | 44% | 1024.1 hPa | 0 mm | - | - | - |
* Rain latest hour (hover to see other rain measurements)
** Current wind speed in m/s (hover to see current wind gust speed)